{"data":{"norad_id":47135,"epoch":"2026-09-18T15:48:28.573056Z","epoch_age_seconds":181084,"freshness":"STALE","line1":"1 47135U 20088P   26261.65866404  .10657769  12535-4  38909-3 0  9997","line2":"2 47135  53.0217  34.7247 0008693 299.8526  60.1657 16.43600395322609","mean_motion":16.43600395,"eccentricity":0.0008693,"inclination_deg":53.0217,"raan_deg":34.7247,"arg_perigee_deg":299.8526,"mean_anomaly_deg":60.1657,"bstar":0.00038909,"rev_number":32260,"period_min":87.612536744371,"perigee_km":150.56211028531,"apogee_km":161.92278239071,"semimajor_km":6534.379446338,"source":"CELESTRAK","updated_at":"2026-09-19T09:01:38.447276Z"}}